This demonstration page uses our WeatherBlox Daily Observations layout. Learn more.

Hourly Observations for August 31, 2016

Temp ( °F °C ) Dew Point ( °F °C ) Humidity (%) Winds ( mph kmh ) Pressure ( in mb ) Visibility ( mi km ) Precip ( " mm )
12:54 am 00:54 Mostly Cloudy 71 21.7 69 20.6 94 94 N 6 9 30.14 1021 9 14.48406 0 0
1:54 am 01:54 Cloudy 71 21.7 69 20.6 94 94 Calm 30.15 1021 10 16.0934 0 0
2:54 am 02:54 Mostly Clear 70 21.1 68 20 93 93 NNE 3 6 30.14 1021 7 11.26538 0 0
3:51 am 03:51 Mostly Cloudy 70 21 68 20 94 94 N 6 9 30.15 1021 10 16.0934 0 0
3:54 am 03:54 Mostly Cloudy 70 21.1 68 20 93 93 N 6 9 30.14 1021 9 14.48406 0 0
4:33 am 04:33 Cloudy 70 21.1 68 20 93 93 N 6 9 30.15 1021 9 14.48406 0 0
4:54 am 04:54 Cloudy 70 21.1 68 20 93 93 N 5 7 30.14 1021 8 12.87472 0 0
5:54 am 05:54 Mostly Cloudy 70 21.1 68 20 93 93 N 6 9 30.14 1021 8 12.87472 0 0
6:37 am 06:37 Mostly Cloudy 70 21.1 68 20 93 93 NNW 7 11 30.15 1021 8 12.87472 0 0
6:54 am 06:54 Mostly Cloudy 70 21.1 68 20 93 93 N 6 9 30.15 1021 7 11.26538 0 0
7:21 am 07:21 Mostly Cloudy with Mist and Fog 70 21.1 68 20 93 93 N 6 9 30.15 1021 5 8.0467 0 0
7:46 am 07:46 Partly Cloudy 70 21 68 20 94 94 NE 6 9 30.15 1021 7 11.26538 0 0
7:54 am 07:54 Mostly Cloudy 71 21.7 69 20.6 94 94 NE 6 9 30.16 1021 9 14.48406 0 0
8:20 am 08:20 Cloudy 72 22 70 21 94 94 ENE 7 11 30.15 1021 9 14.48406 0 0
8:54 am 08:54 Cloudy 73 22.8 68 20 84 84 NE 7 11 30.16 1022 10 16.0934 0 0
9:15 am 09:15 Mostly Cloudy 73 22.8 65 18.3 76 76 ENE 8 13 30.15 1021 10 16.0934 0 0
9:54 am 09:54 Cloudy 75 23.9 65 18.3 71 71 NE 10 17 30.17 1022 10 16.0934 0 0
10:54 am 10:54 Mostly Sunny 76 24.4 65 18.3 69 69 NE 10 17 30.18 1022 10 16.0934 0 0
11:54 am 11:54 Sunny 78 25.6 62 16.7 58 58 NE 9 15 30.18 1022 10 16.0934 0 0
12:54 pm 12:54 Sunny 78 25.6 61 16.1 56 56 NNE 9 15 30.17 1022 10 16.0934 0 0
1:54 pm 13:54 Sunny 79 26.1 60 15.6 52 52 ENE 9 15 30.15 1021 10 16.0934 0 0
2:54 pm 14:54 Sunny 80 26.7 61 16.1 52 52 ENE 8 13 30.14 1021 10 16.0934 0 0
3:54 pm 15:54 Sunny 82 27.8 61 16.1 49 49 NNE 9 15 30.13 1020 10 16.0934 0 0
4:54 pm 16:54 Sunny 82 27.8 61 16.1 49 49 NNE 10 17 30.12 1020 10 16.0934 0 0
5:54 pm 17:54 Sunny 80 26.7 59 15 49 49 NE 10 17 30.12 1020 10 16.0934 0 0
6:54 pm 18:54 Sunny 78 25.6 61 16.1 56 56 NNE 10 17 30.11 1020 10 16.0934 0 0
7:54 pm 19:54 Sunny 72 22.2 62 16.7 71 71 NE 7 11 30.13 1020 10 16.0934 0 0
8:54 pm 20:54 Clear 67 19.4 61 16.1 81 81 NE 7 11 30.14 1021 10 16.0934 0 0
9:54 pm 21:54 Clear 66 18.9 59 15 78 78 NNE 3 6 30.16 1021 10 16.0934 0 0
10:54 pm 22:54 Clear 64 17.8 58 14.4 81 81 N 3 6 30.17 1022 10 16.0934 0 0
11:54 pm 23:54 Clear 62 16.7 58 14.4 86 86 N 5 7 30.18 1022 10 16.0934 0 0

Powered by AerisWeather